| time (UTC) | temp F | wind direction | speed knots | gust knots | rain 1hr in | rain 24hr in | rain mn in | humidity % | barometer mb |
| 20260503185114 | 80 | 270 | 2.6 | 2.6 | 0.00 | 0.00 | 0.00 | 47 | 1020.0 |
| 20260503184614 | 79 | 203 | 0.0 | 0.9 | 0.00 | 0.00 | 0.00 | 45 | 1020.0 |
| 20260503184115 | 79 | 270 | 1.7 | 3.5 | 0.00 | 0.00 | 0.00 | 46 | 1020.0 |
| 20260503183614 | 78 | 68 | 2.6 | 3.5 | 0.00 | 0.00 | 0.00 | 47 | 1020.0 |
| 20260503183114 | 78 | 45 | 0.9 | 1.7 | 0.00 | 0.00 | 0.00 | 47 | 1020.0 |
| 20260503182614 | 78 | 158 | 0.0 | 0.9 | 0.00 | 0.00 | 0.00 | 47 | 1020.0 |
| 20260503182114 | 77 | 23 | 1.7 | 1.7 | 0.00 | 0.00 | 0.00 | 48 | 1020.0 |
| 20260503181614 | 77 | 23 | 1.7 | 1.7 | 0.00 | 0.00 | 0.00 | 49 | 1020.0 |
| 20260503181116 | 77 | 0 | 0.0 | 0.9 | 0.00 | 0.00 | 0.00 | 50 | 1020.0 |
| 20260503180614 | 77 | 338 | 0.9 | 1.7 | 0.00 | 0.00 | 0.00 | 48 | 1020.0 |
| 20260503180114 | 77 | 293 | 0.9 | 1.7 | 0.00 | 0.00 | 0.00 | 47 | 1020.0 |
| 20260503175614 | 76 | 248 | 1.7 | 1.7 | 0.00 | 0.00 | 0.00 | 46 | 1020.0 |
| 20260503175114 | 76 | 45 | 0.0 | 0.0 | 0.00 | 0.00 | 0.00 | 47 | 1020.0 |
| 20260503174615 | 76 | 338 | 0.9 | 1.7 | 0.00 | 0.00 | 0.00 | 48 | 1020.0 |
| 20260503174114 | 74 | 45 | 2.6 | 2.6 | 0.00 | 0.00 | 0.00 | 48 | 1020.0 |
| 20260503173615 | 76 | 338 | 1.7 | 1.7 | 0.00 | 0.00 | 0.00 | 46 | 1020.0 |
| 20260503173115 | 76 | 90 | 0.9 | 1.7 | 0.00 | 0.00 | 0.00 | 47 | 1020.0 |
| 20260503172614 | 74 | 113 | 0.9 | 1.7 | 0.00 | 0.00 | 0.00 | 47 | 1020.0 |
| 20260503172115 | 75 | 90 | 0.0 | 0.9 | 0.00 | 0.00 | 0.00 | 46 | 1020.0 |
| 20260503171614 | 73 | 68 | 0.0 | 0.9 | 0.00 | 0.00 | 0.00 | 47 | 1021.0 |
| 20260503171115 | 73 | 135 | 0.0 | 0.9 | 0.00 | 0.00 | 0.00 | 49 | 1020.0 |
| 20260503170615 | 74 | 90 | 0.0 | 1.7 | 0.00 | 0.00 | 0.00 | 48 | 1020.0 |
| 20260503170114 | 72 | 90 | 0.0 | 0.9 | 0.00 | 0.00 | 0.00 | 51 | 1020.0 |
| 20260503160115 | 66 | 0 | 0.9 | 1.7 | 0.00 | 0.00 | 0.00 | 59 | 1021.0 |
| 20260503150615 | 62 | 158 | 2.6 | 4.3 | 0.00 | 0.00 | 0.00 | 67 | 1021.0 |
| 20260503150114 | 60 | 45 | 0.9 | 1.7 | 0.00 | 0.00 | 0.00 | 74 | 1021.0 |
| 20260503140115 | 58 | 113 | 1.7 | 1.7 | 0.00 | 0.00 | 0.00 | 75 | 1021.0 |
| 20260503131115 | 55 | 135 | 0.9 | 1.7 | 0.00 | 0.00 | 0.00 | 82 | 1021.0 |
| 20260503130114 | 54 | 135 | 0.0 | 0.0 | 0.00 | 0.00 | 0.00 | 85 | 1020.0 |
| 20260503120114 | 56 | 113 | 0.0 | 1.7 | 0.00 | 0.00 | 0.00 | 84 | 1020.0 |
| 20260503100116 | 53 | 315 | 0.0 | 0.0 | 0.00 | 0.00 | 0.00 | 97 | 1021.0 |
| 20260503090114 | 53 | 113 | 0.0 | 0.0 | 0.00 | 0.00 | 0.00 | 96 | 1022.0 |
| 20260503081614 | 54 | 0 | 0.0 | 0.0 | 0.00 | 0.00 | 0.00 | 96 | 1021.0 |
| 20260503080114 | 54 | 338 | 0.0 | 0.0 | 0.00 | 0.00 | 0.00 | 95 | 1021.0 |
| 20260503072614 | 56 | 158 | 0.0 | 0.0 | 0.00 | 0.00 | 0.00 | 95 | 1021.0 |
| 20260503072114 | 56 | 180 | 0.9 | 0.9 | 0.00 | 0.00 | 0.00 | 95 | 1021.0 |
| 20260503071615 | 56 | 158 | 0.0 | 0.0 | 0.00 | 0.00 | 0.00 | 94 | 1022.0 |
| 20260503071114 | 56 | 113 | 0.0 | 0.0 | 0.00 | 0.00 | 0.00 | 94 | 1021.0 |
| 20260503070615 | 56 | 113 | 0.0 | 0.0 | 0.00 | 0.00 | 0.00 | 93 | 1022.0 |
| 20260503070114 | 56 | 113 | 0.0 | 0.0 | 0.00 | 0.00 | 0.00 | 94 | 1021.0 |
| 20260503060114 | 58 | 68 | 0.0 | 0.0 | 0.00 | 0.00 | 0.00 | 90 | 1022.0 |
| 20260503055114 | 59 | 113 | 0.0 | 0.0 | 0.00 | 0.00 | 0.00 | 89 | 1021.0 |
| 20260503054614 | 59 | 113 | 0.0 | 0.0 | 0.00 | 0.00 | 0.00 | 88 | 1021.0 |
| 20260503054114 | 59 | 45 | 0.0 | 0.0 | 0.00 | 0.00 | 0.00 | 88 | 1021.0 |
| 20260503053615 | 60 | 113 | 0.0 | 0.0 | 0.00 | 0.00 | 0.00 | 88 | 1021.0 |
| 20260503052629 | 60 | 135 | 0.0 | 0.0 | 0.00 | 0.00 | 0.00 | 87 | 1021.0 |
| 20260503052114 | 60 | 113 | 0.0 | 0.0 | 0.00 | 0.00 | 0.00 | 86 | 1021.0 |
| 20260503051614 | 61 | 113 | 0.0 | 0.0 | 0.00 | 0.00 | 0.00 | 84 | 1021.0 |
| 20260503051114 | 62 | 113 | 0.9 | 0.9 | 0.00 | 0.00 | 0.00 | 84 | 1021.0 |
| 20260503050614 | 61 | 158 | 0.0 | 0.0 | 0.00 | 0.00 | 0.00 | 84 | 1021.0 |
| 20260503050114 | 62 | 225 | 0.0 | 0.0 | 0.00 | 0.00 | 0.00 | 84 | 1021.0 |
| 20260503045615 | 62 | 135 | 0.0 | 0.0 | 0.00 | 0.00 | 0.00 | 83 | 1021.0 |
| 20260503045114 | 62 | 113 | 0.0 | 0.0 | 0.00 | 0.00 | 0.00 | 82 | 1021.0 |
| 20260503044615 | 64 | 113 | 0.9 | 1.7 | 0.00 | 0.00 | 0.00 | 80 | 1021.0 |
| 20260503044115 | 63 | 113 | 0.0 | 0.0 | 0.00 | 0.00 | 0.00 | 81 | 1021.0 |
| 20260503043615 | 63 | 113 | 0.0 | 0.0 | 0.00 | 0.00 | 0.00 | 81 | 1021.0 |
| 20260503043114 | 63 | 158 | 0.0 | 0.0 | 0.00 | 0.00 | 0.00 | 80 | 1021.0 |
| 20260503042614 | 63 | 135 | 2.6 | 2.6 | 0.00 | 0.00 | 0.00 | 80 | 1021.0 |
| 20260503042114 | 64 | 113 | 0.9 | 0.9 | 0.00 | 0.00 | 0.00 | 80 | 1021.0 |
| 20260503041614 | 64 | 135 | 0.9 | 1.7 | 0.00 | 0.00 | 0.00 | 80 | 1021.0 |
| 20260503041114 | 64 | 135 | 0.9 | 1.7 | 0.00 | 0.00 | 0.00 | 80 | 1021.0 |
| 20260503040615 | 64 | 113 | 0.0 | 0.0 | 0.00 | 0.00 | 0.00 | 80 | 1021.0 |
| 20260503040115 | 65 | 90 | 0.0 | 0.0 | 0.00 | 0.00 | 0.00 | 79 | 1020.0 |
| 20260503035614 | 65 | 90 | 0.0 | 0.0 | 0.00 | 0.00 | 0.00 | 78 | 1020.0 |
| 20260503035115 | 65 | 113 | 0.0 | 0.9 | 0.00 | 0.00 | 0.00 | 77 | 1020.0 |
| 20260503034615 | 66 | 248 | 0.0 | 0.0 | 0.00 | 0.00 | 0.00 | 76 | 1020.0 |
| 20260503034114 | 67 | 90 | 0.9 | 1.7 | 0.00 | 0.00 | 0.00 | 71 | 1020.0 |
| 20260503033614 | 68 | 158 | 0.0 | 0.0 | 0.00 | 0.00 | 0.00 | 69 | 1020.0 |
| 20260503033115 | 68 | 158 | 0.0 | 0.0 | 0.00 | 0.00 | 0.00 | 68 | 1020.0 |
| 20260503032614 | 69 | 113 | 0.9 | 1.7 | 0.00 | 0.00 | 0.00 | 67 | 1020.0 |
| 20260503032115 | 69 | 180 | 0.0 | 0.9 | 0.00 | 0.00 | 0.00 | 67 | 1020.0 |
| 20260503031615 | 70 | 135 | 0.0 | 0.0 | 0.00 | 0.00 | 0.00 | 65 | 1020.0 |
| 20260503031116 | 72 | 180 | 0.9 | 1.7 | 0.00 | 0.00 | 0.00 | 64 | 1020.0 |
| 20260503030614 | 72 | 135 | 0.0 | 0.0 | 0.00 | 0.00 | 0.00 | 63 | 1020.0 |
| 20260503030114 | 72 | 113 | 0.9 | 1.7 | 0.00 | 0.00 | 0.00 | 61 | 1020.0 |
| 20260503025614 | 73 | 90 | 0.0 | 0.9 | 0.00 | 0.00 | 0.00 | 60 | 1020.0 |
| 20260503025114 | 74 | 23 | 0.9 | 1.7 | 0.00 | 0.00 | 0.00 | 57 | 1019.0 |
| 20260503024614 | 74 | 113 | 0.0 | 0.0 | 0.00 | 0.00 | 0.00 | 60 | 1019.0 |
| 20260503024114 | 75 | 203 | 0.9 | 1.7 | 0.00 | 0.00 | 0.00 | 57 | 1019.0 |
| 20260503023614 | 76 | 180 | 1.7 | 2.6 | 0.00 | 0.00 | 0.00 | 55 | 1019.0 |
| 20260503023114 | 76 | 158 | 0.0 | 0.9 | 0.00 | 0.00 | 0.00 | 55 | 1019.0 |
| 20260503022615 | 77 | 225 | 0.9 | 1.7 | 0.00 | 0.00 | 0.00 | 54 | 1020.0 |
| 20260503022115 | 79 | 135 | 0.0 | 0.0 | 0.00 | 0.00 | 0.00 | 52 | 1020.0 |
| 20260503021614 | 82 | 203 | 0.0 | 0.0 | 0.00 | 0.00 | 0.00 | 50 | 1019.0 |
| 20260503021114 | 82 | 158 | 0.0 | 0.0 | 0.00 | 0.00 | 0.00 | 46 | 1019.0 |
| 20260503020614 | 82 | 135 | 0.0 | 0.0 | 0.00 | 0.00 | 0.00 | 47 | 1019.0 |
| 20260503020114 | 82 | 158 | 0.0 | 0.0 | 0.00 | 0.00 | 0.00 | 47 | 1019.0 |
| 20260503015615 | 82 | 158 | 0.0 | 0.0 | 0.00 | 0.00 | 0.00 | 48 | 1020.0 |
| 20260503015114 | 82 | 180 | 0.0 | 0.0 | 0.00 | 0.00 | 0.00 | 50 | 1019.0 |
| 20260503014614 | 82 | 135 | 0.0 | 0.0 | 0.00 | 0.00 | 0.00 | 47 | 1019.0 |
| 20260503014114 | 81 | 135 | 0.9 | 1.7 | 0.00 | 0.00 | 0.00 | 48 | 1019.0 |
| 20260503013614 | 82 | 270 | 0.9 | 0.9 | 0.00 | 0.00 | 0.00 | 48 | 1019.0 |
| 20260503013114 | 82 | 180 | 0.9 | 1.7 | 0.00 | 0.00 | 0.00 | 45 | 1019.0 |
| 20260503012614 | 82 | 225 | 1.7 | 1.7 | 0.00 | 0.00 | 0.00 | 44 | 1019.0 |
| 20260503012114 | 81 | 113 | 0.9 | 1.7 | 0.00 | 0.00 | 0.00 | 45 | 1019.0 |
| 20260503011615 | 82 | 135 | 2.6 | 2.6 | 0.00 | 0.00 | 0.00 | 44 | 1019.0 |
| 20260503011114 | 83 | 293 | 0.0 | 0.9 | 0.00 | 0.00 | 0.00 | 48 | 1019.0 |
| 20260503010614 | 82 | 158 | 0.9 | 1.7 | 0.00 | 0.00 | 0.00 | 45 | 1019.0 |
| 20260503010114 | 82 | 270 | 1.7 | 1.7 | 0.00 | 0.00 | 0.00 | 46 | 1019.0 |
| 20260503005614 | 83 | 270 | 0.9 | 1.7 | 0.00 | 0.00 | 0.00 | 44 | 1019.0 |
| 20260503005114 | 82 | 293 | 1.7 | 1.7 | 0.00 | 0.00 | 0.00 | 46 | 1019.0 |
| 20260503004614 | 81 | 270 | 2.6 | 2.6 | 0.00 | 0.00 | 0.00 | 48 | 1019.0 |
| 20260503004114 | 81 | 158 | 4.3 | 4.3 | 0.00 | 0.00 | 0.00 | 46 | 1019.0 |
| 20260503003614 | 80 | 203 | 2.6 | 3.5 | 0.00 | 0.00 | 0.00 | 47 | 1019.0 |
| 20260503003114 | 80 | 225 | 6.1 | 6.1 | 0.00 | 0.00 | 0.00 | 47 | 1019.0 |
| 20260503002614 | 81 | 248 | 4.3 | 5.2 | 0.00 | 0.00 | 0.00 | 46 | 1019.0 |